OAL2ES LGAV-LGSK

Flight info

Callsign OAL2ES
Flight time 0h 19m
Altitude 12000
Route ROPOX M749 SIGFO
Aircraft HDJT/L-SABDGRWY/H

Departure

Time 2026-04-12 05:26
Airport Athens Eleftherios Venizelos International Airport (LGAV)

Arrival

Time 2026-04-12 05:45
Airport Skiathos Island National Airport (LGSK)
Time Latitude Longitude Altitude Speed Heading
2026-04-12 05:18 37.92613 23.94015 298 ft 0 kts 217°
2026-04-12 05:22 37.92626 23.94027 298 ft 2 kts 216°
2026-04-12 05:22 37.92639 23.94039 296 ft 2 kts 214°
2026-04-12 05:23 37.92653 23.94051 298 ft 2 kts 212°
2026-04-12 05:23 37.92667 23.94061 298 ft 2 kts 206°
2026-04-12 05:23 37.92682 23.94067 296 ft 2 kts 186°
2026-04-12 05:23 37.92692 23.94063 296 ft 0 kts 139°
2026-04-12 05:24 37.92688 23.94069 296 ft 6 kts 127°
2026-04-12 05:24 37.92622 23.94182 297 ft 24 kts 126°
2026-04-12 05:24 37.92523 23.94348 301 ft 22 kts 127°
2026-04-12 05:25 37.92513 23.94474 302 ft 16 kts 40°
2026-04-12 05:25 37.92653 23.94611 300 ft 55 kts 37°
2026-04-12 05:25 37.93223 23.95154 327 ft 137 kts 37°
2026-04-12 05:25 37.94057 23.95952 731 ft 165 kts 37°
2026-04-12 05:26 37.95037 23.96897 1287 ft 187 kts 37°
2026-04-12 05:26 37.96123 23.97944 1939 ft 202 kts 37°
2026-04-12 05:26 37.97263 23.98914 2998 ft 196 kts 24°
2026-04-12 05:26 37.98664 23.99231 3623 ft 214 kts 353°
2026-04-12 05:27 38.00049 23.98595 4606 ft 211 kts 324°
2026-04-12 05:27 38.01049 23.97223 5501 ft 217 kts 303°
2026-04-12 05:27 38.01850 23.95618 6532 ft 212 kts 305°
2026-04-12 05:27 38.02666 23.94064 7370 ft 216 kts 307°
2026-04-12 05:28 38.03639 23.92609 8285 ft 216 kts 315°
2026-04-12 05:28 38.04734 23.91308 9247 ft 215 kts 317°
2026-04-12 05:28 38.05845 23.90001 10075 ft 224 kts 316°
2026-04-12 05:28 38.07054 23.88531 10122 ft 258 kts 315°
2026-04-12 05:29 38.08411 23.86867 10125 ft 280 kts 316°
2026-04-12 05:29 38.09844 23.85121 10122 ft 287 kts 316°
2026-04-12 05:29 38.11297 23.83355 10548 ft 289 kts 316°
2026-04-12 05:29 38.12742 23.81593 11333 ft 288 kts 316°
2026-04-12 05:30 38.13703 23.80421 11780 ft 290 kts 317°
2026-04-12 05:30 38.15402 23.79027 12137 ft 296 kts 337°
2026-04-12 05:30 38.17412 23.78434 12140 ft 298 kts 347°
2026-04-12 05:30 38.19447 23.77930 12142 ft 297 kts 344°
2026-04-12 05:31 38.22094 23.77074 12143 ft 297 kts 342°
2026-04-12 05:31 38.23447 23.76633 12141 ft 297 kts 343°
2026-04-12 05:31 38.25462 23.76020 12142 ft 297 kts 344°
2026-04-12 05:31 38.27450 23.75424 12144 ft 297 kts 343°
2026-04-12 05:32 38.29458 23.74806 12138 ft 297 kts 343°
2026-04-12 05:32 38.31467 23.74184 12138 ft 296 kts 343°
2026-04-12 05:32 38.33468 23.73567 12140 ft 296 kts 343°
2026-04-12 05:32 38.35472 23.72951 12140 ft 296 kts 343°
2026-04-12 05:33 38.37476 23.72334 12140 ft 296 kts 343°
2026-04-12 05:33 38.39485 23.71714 12140 ft 296 kts 343°
2026-04-12 05:33 38.41494 23.71094 12141 ft 296 kts 343°
2026-04-12 05:33 38.43494 23.70478 12147 ft 296 kts 343°
2026-04-12 05:34 38.45505 23.69856 12149 ft 297 kts 343°
2026-04-12 05:34 38.47484 23.69244 12151 ft 297 kts 343°
2026-04-12 05:34 38.49490 23.68624 12149 ft 296 kts 343°
2026-04-12 05:34 38.51488 23.68006 12149 ft 296 kts 343°
2026-04-12 05:35 38.53496 23.67384 11788 ft 296 kts 343°
2026-04-12 05:35 38.55485 23.66768 11291 ft 294 kts 343°
2026-04-12 05:35 38.57466 23.66155 10797 ft 292 kts 343°
2026-04-12 05:35 38.59437 23.65543 10310 ft 291 kts 344°
2026-04-12 05:36 38.61399 23.64935 9813 ft 289 kts 344°
2026-04-12 05:36 38.63350 23.64328 9284 ft 288 kts 344°
2026-04-12 05:36 38.65292 23.63725 8767 ft 287 kts 344°
2026-04-12 05:36 38.67231 23.63122 8262 ft 286 kts 345°
2026-04-12 05:37 38.69157 23.62524 7761 ft 284 kts 345°
2026-04-12 05:37 38.71078 23.61926 7256 ft 283 kts 345°
2026-04-12 05:37 38.72987 23.61332 6766 ft 280 kts 346°
2026-04-12 05:37 38.74835 23.60757 6263 ft 268 kts 346°
2026-04-12 05:38 38.76583 23.60212 6143 ft 258 kts 346°
2026-04-12 05:38 38.78339 23.59663 6136 ft 260 kts 346°
2026-04-12 05:38 38.80097 23.59115 6135 ft 260 kts 346°
2026-04-12 05:38 38.81861 23.58565 5935 ft 261 kts 346°
2026-04-12 05:39 38.83624 23.58014 5474 ft 259 kts 346°
2026-04-12 05:39 38.85371 23.57468 5023 ft 258 kts 346°
2026-04-12 05:39 38.87116 23.56922 4557 ft 258 kts 346°
2026-04-12 05:39 38.88839 23.56384 4100 ft 257 kts 346°
2026-04-12 05:40 38.90581 23.55839 3647 ft 258 kts 346°
2026-04-12 05:40 38.92312 23.55254 3192 ft 258 kts 342°
2026-04-12 05:40 38.93996 23.54474 2730 ft 257 kts 339°
2026-04-12 05:40 38.95672 23.53687 2265 ft 253 kts 341°
2026-04-12 05:41 38.97315 23.52989 2010 ft 240 kts 342°
2026-04-12 05:41 38.98848 23.52340 2003 ft 227 kts 341°
2026-04-12 05:41 39.00345 23.51691 2000 ft 228 kts 341°
2026-04-12 05:41 39.01853 23.51038 1997 ft 228 kts 341°
2026-04-12 05:42 39.03348 23.50391 1989 ft 223 kts 341°
2026-04-12 05:42 39.04788 23.49764 1933 ft 215 kts 341°
2026-04-12 05:42 39.06177 23.49151 1820 ft 205 kts 341°
2026-04-12 05:43 39.08730 23.47961 1429 ft 188 kts 340°
2026-04-12 05:43 39.09919 23.47563 1303 ft 164 kts 354°
2026-04-12 05:43 39.10957 23.47599 1106 ft 139 kts
2026-04-12 05:43 39.11860 23.47796 848 ft 126 kts 12°
2026-04-12 05:44 39.12699 23.48070 682 ft 122 kts 17°
2026-04-12 05:44 39.13500 23.48419 518 ft 121 kts 21°
2026-04-12 05:44 39.14277 23.48829 425 ft 120 kts 22°
2026-04-12 05:44 39.15077 23.49200 373 ft 120 kts 17°
2026-04-12 05:45 39.15881 23.49537 273 ft 124 kts 20°
2026-04-12 05:45 39.16721 23.49919 109 ft 131 kts 19°
2026-04-12 05:45 39.17537 23.50290 35 ft 101 kts 19°
2026-04-12 05:45 39.17857 23.50433 34 ft 21 kts 20°
2026-04-12 05:46 39.17930 23.50407 36 ft 11 kts 272°
2026-04-12 05:46 39.17935 23.50312 34 ft 13 kts 289°
2026-04-12 05:46 39.17952 23.50246 34 ft 0 kts 289°